| time (UTC) | temp F | wind direction | speed MPH | gust MPH | rain 1hr in | rain 24hr in | rain mn in | humidity % | barometer mb |
| 20260905140132 | 69 | 0.0 | 1.0 | 0.00 | 0.00 | 0.00 | 79 | 1009.3 | |
| 20260905135151 | 69 | 0.0 | 0.0 | 0.00 | 0.00 | 0.00 | 79 | 1009.6 | |
| 20260905134137 | 69 | 306 | 1.0 | 1.0 | 0.00 | 0.00 | 0.00 | 79 | 1009.4 |
| 20260905133123 | 69 | 306 | 0.0 | 2.0 | 0.00 | 0.00 | 0.00 | 80 | 1009.3 |
| 20260905132143 | 68 | 292 | 1.0 | 3.0 | 0.00 | 0.00 | 0.00 | 79 | 1009.4 |
| 20260905131129 | 68 | 0.0 | 1.0 | 0.00 | 0.00 | 0.00 | 80 | 1009.2 | |
| 20260905130209 | 67 | 357 | 0.0 | 1.0 | 0.00 | 0.00 | 0.00 | 83 | 1009.1 |
| 20260905125155 | 66 | 0.0 | 0.0 | 0.00 | 0.00 | 0.00 | 83 | 1009.2 | |
| 20260905124154 | 66 | 295 | 0.0 | 3.0 | 0.00 | 0.00 | 0.00 | 83 | 1009.1 |
| 20260905123141 | 65 | 253 | 1.0 | 2.0 | 0.00 | 0.00 | 0.00 | 85 | 1009.0 |
| 20260905122127 | 64 | 254 | 0.0 | 1.0 | 0.00 | 0.00 | 0.00 | 86 | 1008.9 |
| 20260905121146 | 63 | 0.0 | 0.0 | 0.00 | 0.00 | 0.00 | 87 | 1008.9 | |
| 20260905120132 | 63 | 0.0 | 0.0 | 0.00 | 0.00 | 0.00 | 88 | 1008.7 | |
| 20260905115152 | 62 | 0.0 | 0.0 | 0.00 | 0.00 | 0.00 | 90 | 1008.8 | |
| 20260905114138 | 61 | 0.0 | 0.0 | 0.00 | 0.00 | 0.00 | 91 | 1008.6 | |
| 20260905113157 | 61 | 0.0 | 0.0 | 0.00 | 0.00 | 0.00 | 91 | 1008.7 | |
| 20260905112204 | 61 | 0.0 | 0.0 | 0.00 | 0.00 | 0.00 | 92 | 1008.5 | |
| 20260905111150 | 60 | 0.0 | 0.0 | 0.00 | 0.00 | 0.00 | 92 | 1008.5 | |
| 20260905110149 | 60 | 0.0 | 0.0 | 0.00 | 0.00 | 0.00 | 92 | 1008.4 | |
| 20260905105135 | 60 | 0.0 | 0.0 | 0.00 | 0.00 | 0.00 | 91 | 1008.2 | |
| 20260905104154 | 60 | 0.0 | 0.0 | 0.00 | 0.00 | 0.00 | 91 | 1008.2 | |
| 20260905103141 | 60 | 0.0 | 0.0 | 0.00 | 0.00 | 0.00 | 92 | 1008.2 | |
| 20260905102200 | 60 | 0.0 | 0.0 | 0.00 | 0.00 | 0.00 | 92 | 1008.2 | |
| 20260905101146 | 60 | 0.0 | 0.0 | 0.00 | 0.00 | 0.00 | 91 | 1008.3 | |
| 20260905100153 | 60 | 0.0 | 0.0 | 0.00 | 0.00 | 0.00 | 91 | 1008.1 | |
| 20260905095332 | 60 | 0.0 | 0.0 | 0.00 | 0.00 | 0.00 | 91 | 1008.1 | |
| 20260905094139 | 61 | 0.0 | 0.0 | 0.00 | 0.00 | 0.00 | 90 | 1008.1 | |
| 20260905093218 | 60 | 0.0 | 0.0 | 0.00 | 0.00 | 0.00 | 91 | 1008.0 | |
| 20260905092144 | 60 | 0.0 | 0.0 | 0.00 | 0.00 | 0.00 | 90 | 1008.1 | |
| 20260905091203 | 61 | 0.0 | 0.0 | 0.00 | 0.00 | 0.00 | 91 | 1008.0 | |
| 20260905090149 | 61 | 0.0 | 0.0 | 0.00 | 0.00 | 0.00 | 91 | 1008.0 | |
| 20260905085156 | 61 | 0.0 | 0.0 | 0.00 | 0.00 | 0.00 | 90 | 1008.0 | |
| 20260905084155 | 61 | 0.0 | 0.0 | 0.00 | 0.00 | 0.00 | 90 | 1007.8 | |
| 20260905083142 | 62 | 0.0 | 0.0 | 0.00 | 0.00 | 0.00 | 89 | 1007.9 | |
| 20260905082201 | 62 | 0.0 | 0.0 | 0.00 | 0.00 | 0.00 | 88 | 1008.0 | |
| 20260905081147 | 62 | 0.0 | 0.0 | 0.00 | 0.00 | 0.00 | 88 | 1007.8 | |
| 20260905080133 | 62 | 0.0 | 0.0 | 0.00 | 0.00 | 0.00 | 89 | 1007.9 | |
| 20260905075153 | 62 | 0.0 | 0.0 | 0.00 | 0.00 | 0.00 | 89 | 1007.9 | |
| 20260905074138 | 62 | 0.0 | 0.0 | 0.00 | 0.00 | 0.00 | 89 | 1007.9 | |
| 20260905073158 | 62 | 0.0 | 0.0 | 0.00 | 0.00 | 0.00 | 87 | 1007.9 | |
| 20260905072144 | 63 | 0.0 | 0.0 | 0.00 | 0.00 | 0.00 | 87 | 1007.9 | |
| 20260905071150 | 62 | 0.0 | 0.0 | 0.00 | 0.00 | 0.00 | 87 | 1007.9 | |
| 20260905070150 | 62 | 0.0 | 0.0 | 0.00 | 0.00 | 0.00 | 87 | 1008.2 | |
| 20260905065155 | 62 | 0.0 | 0.0 | 0.00 | 0.00 | 0.00 | 87 | 1008.3 | |
| 20260905064155 | 62 | 0.0 | 0.0 | 0.00 | 0.00 | 0.00 | 87 | 1008.3 | |
| 20260905063141 | 63 | 0.0 | 0.0 | 0.00 | 0.00 | 0.00 | 86 | 1008.4 | |
| 20260905062200 | 63 | 0.0 | 0.0 | 0.00 | 0.00 | 0.00 | 86 | 1008.5 | |
| 20260905061147 | 63 | 0.0 | 0.0 | 0.00 | 0.00 | 0.00 | 86 | 1008.7 | |
| 20260905060133 | 63 | 0.0 | 0.0 | 0.00 | 0.00 | 0.00 | 86 | 1008.7 | |
| 20260905055152 | 64 | 0.0 | 0.0 | 0.00 | 0.00 | 0.00 | 86 | 1008.6 | |
| 20260905054138 | 64 | 0.0 | 0.0 | 0.00 | 0.00 | 0.00 | 85 | 1008.6 | |
| 20260905053158 | 64 | 0.0 | 0.0 | 0.00 | 0.00 | 0.00 | 85 | 1008.6 | |
| 20260905052244 | 65 | 0.0 | 0.0 | 0.00 | 0.00 | 0.00 | 85 | 1008.5 | |
| 20260905051203 | 64 | 0.0 | 0.0 | 0.00 | 0.00 | 0.00 | 85 | 1008.5 | |
| 20260905050149 | 64 | 0.0 | 0.0 | 0.00 | 0.00 | 0.00 | 84 | 1008.6 | |
| 20260905045216 | 64 | 0.0 | 0.0 | 0.00 | 0.00 | 0.00 | 85 | 1008.4 | |
| 20260905044155 | 65 | 0.0 | 0.0 | 0.00 | 0.00 | 0.00 | 84 | 1008.6 | |
| 20260905043141 | 65 | 0.0 | 0.0 | 0.00 | 0.00 | 0.00 | 85 | 1008.5 | |
| 20260905042200 | 65 | 0.0 | 0.0 | 0.00 | 0.00 | 0.00 | 85 | 1008.7 | |
| 20260905041147 | 66 | 0.0 | 0.0 | 0.00 | 0.00 | 0.00 | 84 | 1008.6 | |
| 20260905040205 | 66 | 0.0 | 0.0 | 0.00 | 0.00 | 0.00 | 84 | 1008.5 | |
| 20260905035232 | 66 | 0.0 | 0.0 | 0.00 | 0.00 | 0.00 | 82 | 1008.4 | |
| 20260905034137 | 66 | 0.0 | 0.0 | 0.00 | 0.00 | 0.00 | 82 | 1008.4 | |
| 20260905033316 | 67 | 0.0 | 0.0 | 0.00 | 0.00 | 0.00 | 82 | 1008.5 | |
| 20260905032142 | 67 | 0.0 | 0.0 | 0.00 | 0.00 | 0.00 | 82 | 1008.5 | |
| 20260905031201 | 67 | 0.0 | 0.0 | 0.00 | 0.00 | 0.00 | 82 | 1008.4 | |
| 20260905030147 | 67 | 0.0 | 0.0 | 0.00 | 0.00 | 0.00 | 83 | 1008.6 | |
| 20260905025207 | 67 | 0.0 | 0.0 | 0.00 | 0.00 | 0.00 | 83 | 1008.3 | |
| 20260905024153 | 68 | 0.0 | 1.0 | 0.00 | 0.00 | 0.00 | 81 | 1008.3 | |
| 20260905023232 | 68 | 0.0 | 0.0 | 0.00 | 0.00 | 0.00 | 81 | 1008.4 | |
| 20260905022159 | 68 | 0.0 | 0.0 | 0.00 | 0.00 | 0.00 | 80 | 1008.7 | |
| 20260905021144 | 68 | 0.0 | 0.0 | 0.00 | 0.00 | 0.00 | 82 | 1008.7 | |
| 20260905020204 | 69 | 0.0 | 0.0 | 0.00 | 0.00 | 0.00 | 79 | 1008.6 | |
| 20260905015150 | 69 | 0.0 | 0.0 | 0.00 | 0.00 | 0.00 | 78 | 1008.9 | |
| 20260905014209 | 69 | 0.0 | 0.0 | 0.00 | 0.00 | 0.00 | 77 | 1008.9 | |
| 20260905013156 | 70 | 0.0 | 0.0 | 0.00 | 0.00 | 0.00 | 78 | 1008.8 | |
| 20260905012215 | 70 | 0.0 | 0.0 | 0.00 | 0.00 | 0.00 | 75 | 1008.9 | |
| 20260905011201 | 71 | 0.0 | 0.0 | 0.00 | 0.00 | 0.00 | 76 | 1008.9 | |
| 20260905010148 | 71 | 0.0 | 0.0 | 0.00 | 0.00 | 0.00 | 75 | 1008.9 | |
| 20260905005227 | 72 | 0.0 | 0.0 | 0.00 | 0.00 | 0.00 | 74 | 1008.8 | |
| 20260905004153 | 72 | 0.0 | 0.0 | 0.00 | 0.00 | 0.00 | 71 | 1008.7 | |
| 20260905003213 | 72 | 0.0 | 0.0 | 0.00 | 0.00 | 0.00 | 73 | 1008.7 | |
| 20260905002158 | 72 | 0.0 | 0.0 | 0.00 | 0.00 | 0.00 | 75 | 1008.7 | |
| 20260905001217 | 72 | 0.0 | 0.0 | 0.00 | 0.00 | 0.00 | 76 | 1008.4 | |
| 20260905000204 | 73 | 0.0 | 0.0 | 0.00 | 0.00 | 0.00 | 73 | 1008.6 | |
| 20260904235209 | 73 | 0.0 | 0.0 | 0.00 | 0.00 | 0.00 | 71 | 1008.5 | |
| 20260904234229 | 74 | 0.0 | 0.0 | 0.00 | 0.00 | 0.00 | 71 | 1008.0 | |
| 20260904233155 | 74 | 0.0 | 0.0 | 0.00 | 0.00 | 0.00 | 66 | 1008.0 | |
| 20260904232215 | 75 | 0.0 | 0.0 | 0.00 | 0.00 | 0.00 | 66 | 1007.9 | |
| 20260904231202 | 76 | 0.0 | 0.0 | 0.00 | 0.00 | 0.00 | 64 | 1007.9 | |
| 20260904230220 | 77 | 0.0 | 0.0 | 0.00 | 0.00 | 0.00 | 62 | 1007.9 | |
| 20260904225206 | 77 | 0.0 | 0.0 | 0.00 | 0.00 | 0.00 | 63 | 1007.9 | |
| 20260904224152 | 78 | 0.0 | 0.0 | 0.00 | 0.00 | 0.00 | 60 | 1007.9 | |
| 20260904223231 | 79 | 0.0 | 0.0 | 0.00 | 0.00 | 0.00 | 59 | 1007.8 | |
| 20260904222157 | 79 | 346 | 0.0 | 1.0 | 0.00 | 0.00 | 0.00 | 58 | 1007.8 |
| 20260904221217 | 80 | 307 | 0.0 | 1.0 | 0.00 | 0.00 | 0.00 | 55 | 1007.6 |
| 20260904220203 | 80 | 255 | 0.0 | 3.0 | 0.00 | 0.00 | 0.00 | 57 | 1007.7 |
| 20260904215222 | 80 | 190 | 2.0 | 5.0 | 0.00 | 0.00 | 0.00 | 53 | 1007.7 |
| 20260904214208 | 81 | 302 | 1.0 | 2.0 | 0.00 | 0.00 | 0.00 | 54 | 1007.7 |
| 20260904213154 | 81 | 317 | 1.0 | 2.0 | 0.00 | 0.00 | 0.00 | 55 | 1007.6 |
| 20260904212214 | 80 | 0.0 | 0.0 | 0.00 | 0.00 | 0.00 | 56 | 1007.7 | |
| 20260904211220 | 80 | 353 | 0.0 | 2.0 | 0.00 | 0.00 | 0.00 | 55 | 1007.6 |
| 20260904210219 | 81 | 289 | 1.0 | 2.0 | 0.00 | 0.00 | 0.00 | 54 | 1007.7 |
| 20260904205205 | 80 | 297 | 0.0 | 1.0 | 0.00 | 0.00 | 0.00 | 57 | 1007.7 |
| 20260904204225 | 80 | 0.0 | 1.0 | 0.00 | 0.00 | 0.00 | 58 | 1007.6 | |
| 20260904203211 | 81 | 195 | 1.0 | 3.0 | 0.00 | 0.00 | 0.00 | 55 | 1007.7 |
| 20260904202157 | 81 | 0.0 | 1.0 | 0.00 | 0.00 | 0.00 | 55 | 1007.9 | |
| 20260904201216 | 82 | 0.0 | 0.0 | 0.00 | 0.00 | 0.00 | 56 | 1007.8 | |
| 20260904200203 | 82 | 312 | 1.0 | 1.0 | 0.00 | 0.00 | 0.00 | 54 | 1007.6 |
| 20260904195242 | 82 | 274 | 1.0 | 2.0 | 0.00 | 0.00 | 0.00 | 52 | 1007.6 |
| 20260904194228 | 83 | 348 | 1.0 | 2.0 | 0.00 | 0.00 | 0.00 | 51 | 1007.5 |
| 20260904193307 | 83 | 0.0 | 1.0 | 0.00 | 0.00 | 0.00 | 54 | 1007.6 | |
| 20260904192214 | 82 | 256 | 1.0 | 2.0 | 0.00 | 0.00 | 0.00 | 56 | 1007.6 |
| 20260904191200 | 82 | 324 | 1.0 | 2.0 | 0.00 | 0.00 | 0.00 | 57 | 1007.5 |
| 20260904190219 | 83 | 310 | 0.0 | 2.0 | 0.00 | 0.00 | 0.00 | 56 | 1007.8 |
| 20260904185205 | 83 | 0.0 | 2.0 | 0.00 | 0.00 | 0.00 | 57 | 1007.7 | |
| 20260904184224 | 82 | 293 | 1.0 | 2.0 | 0.00 | 0.00 | 0.00 | 58 | 1007.7 |
| 20260904183210 | 82 | 327 | 1.0 | 1.0 | 0.00 | 0.00 | 0.00 | 59 | 1007.6 |
| 20260904182229 | 83 | 283 | 0.0 | 1.0 | 0.00 | 0.00 | 0.00 | 57 | 1008.1 |
| 20260904181215 | 84 | 307 | 0.0 | 2.0 | 0.00 | 0.00 | 0.00 | 56 | 1007.8 |
| 20260904180202 | 83 | 0.0 | 1.0 | 0.00 | 0.00 | 0.00 | 57 | 1007.8 | |
| 20260904175221 | 82 | 0.0 | 3.0 | 0.00 | 0.00 | 0.00 | 59 | 1008.0 | |
| 20260904174100 | 81 | 0.0 | 2.0 | 0.00 | 0.00 | 0.00 | 62 | 1007.9 | |
| 20260904173120 | 80 | 0.0 | 1.0 | 0.00 | 0.00 | 0.00 | 60 | 1008.0 | |
| 20260904172106 | 82 | 340 | 0.0 | 2.0 | 0.00 | 0.00 | 0.00 | 60 | 1008.1 |
| 20260904171126 | 81 | 340 | 1.0 | 2.0 | 0.00 | 0.00 | 0.00 | 59 | 1008.1 |
| 20260904170112 | 80 | 303 | 1.0 | 2.0 | 0.00 | 0.00 | 0.00 | 62 | 1008.3 |
| 20260904165131 | 80 | 280 | 0.0 | 1.0 | 0.00 | 0.00 | 0.00 | 63 | 1008.2 |
| 20260904164137 | 79 | 294 | 0.0 | 2.0 | 0.00 | 0.00 | 0.00 | 67 | 1008.4 |
| 20260904163103 | 80 | 0.0 | 1.0 | 0.00 | 0.00 | 0.00 | 64 | 1008.5 | |
| 20260904162123 | 79 | 356 | 1.0 | 2.0 | 0.00 | 0.00 | 0.00 | 66 | 1008.5 |
| 20260904161109 | 78 | 312 | 1.0 | 5.0 | 0.00 | 0.00 | 0.00 | 67 | 1008.8 |
| 20260904160129 | 78 | 319 | 1.0 | 3.0 | 0.00 | 0.00 | 0.00 | 69 | 1008.9 |
| 20260904155115 | 78 | 0.0 | 1.0 | 0.00 | 0.00 | 0.00 | 72 | 1008.8 | |
| 20260904154134 | 77 | 10 | 1.0 | 2.0 | 0.00 | 0.00 | 0.00 | 70 | 1009.1 |
| 20260904153121 | 77 | 299 | 2.0 | 2.0 | 0.00 | 0.00 | 0.00 | 73 | 1008.9 |
| 20260904152107 | 76 | 0.0 | 1.0 | 0.00 | 0.00 | 0.00 | 73 | 1009.1 | |
| 20260904151127 | 76 | 272 | 0.0 | 2.0 | 0.00 | 0.00 | 0.00 | 75 | 1008.9 |
| 20260904150133 | 75 | 340 | 0.0 | 1.0 | 0.00 | 0.00 | 0.00 | 76 | 1009.2 |
| 20260904145132 | 74 | 271 | 0.0 | 3.0 | 0.00 | 0.00 | 0.00 | 78 | 1009.2 |
| 20260904144118 | 73 | 358 | 0.0 | 1.0 | 0.00 | 0.00 | 0.00 | 79 | 1009.1 |
| 20260904143137 | 73 | 321 | 0.0 | 2.0 | 0.00 | 0.00 | 0.00 | 81 | 1009.5 |
| 20260904142144 | 71 | 294 | 1.0 | 2.0 | 0.00 | 0.00 | 0.00 | 86 | 1009.4 |